sat.trackr.live / text

‹ back to catalog

STRAND-1

NORAD 39090 · 2013-009E

PAYLOAD ACTIVE UNKNOWN

§ Identity

Operator
Country
UK
Launch date
2013-02-25
Launch site
SRILR
Launch vehicle
Mass (kg)
RCS (m²)
0.06

Purposes: comms, tech_demo

External: N2YO · Heavens-Above · Gunter

§ Orbital elements

Epoch: 2026-05-24T10:53:55.218912Z

Period
100.20 min
Inclination
98.3917°
Eccentricity
0.0007587
Mean motion
14.37146928 rev/d
Perigee alt
762.5 km
Apogee alt
773.4 km
Semi-major
7,146.1 km
B*
8.3831e-5
RAAN
325.2736°
Arg perigee
307.1154°
Mean anomaly
52.9339°
Rev number
69,365

§ Raw data

STRAND-11 39090U 13009E   26144.45411133  .00000206  00000+0  83831-4 0  99972 39090  98.3917 325.2736 0007587 307.1154  52.9339 14.37146928693651

JSON: /api/v1/satellites/39090 · /tle

For live sub-satellite position, see the globe view (requires WebGL).

§ Visibility from observer

Set your observer location to see the next 7 days of passes ≥ 10°. The values pass through the URL so the page stays shareable.

No JS? Fill the form by hand. The geolocation button needs JavaScript.

§ Radio — SatNOGS DB

ModeDescriptionDownlinkUplink
FSK UHF 9k6 FSK TLM (inactive) 437.568 MHz

1 transmitter · refreshed weekly from db.satnogs.org